User: anonymous   Login
Location: S�tio Afonso Gruber
(26.1760°S, 49.5250°W)
Time: 08:28:37
(UTC+00:00)
Language:

PicSat - Orbit

View from above orbital plane
View from above orbital plane
View from above satellite
View from above satellite

Ground track
Ground track

The orbit data is extracted from the following two-line orbital elements,

1 43131U 18004W   21130.90771523  .00002398  00000-0  92818-4 0  9990
2 43131  97.4124 207.0723 0007698 347.0638  13.0403 15.27158339185035
Epoch (UTC): 10 May 2021 21:47:06
Eccentricity: 0.0007698
inclination: 97.4124°
perigee height: 479 km
apogee height: 489 km
right ascension of ascending node: 207.0723°
argument of perigee: 347.0638°
revolutions per day: 15.27158339
mean anomaly at epoch: 13.0403°
orbit number at epoch: 18503

The dashed part of the orbit path shows where the satellite is in the earth's shadow,  

DLR